Regional Weather Roundup
Issued by NWS

Home | Current Version | Previous Version | Text Only | Print | Product List | Glossary On
Versions: 1 2 3 4 5 6 7 8 9 10 11 12 13 14 15 16 17 18 19 20 21 22 23 24 25 26 27 28 29 30 31 32 33 34 35 36 37 38 39 40 41 42 43 44 45 46 47 48 49 50
000
ASUS45 KREV 260510
RWRNV
NEVADA REGIONAL WEATHER ROUNDUP
NATIONAL WEATHER SERVICE RENO NV
900 PM PST TUE NOV 25 2014

NOTE: "FAIR" INDICATES FEW OR NO CLOUDS BELOW 12,000 FEET WITH NO
SIGNIFICANT WEATHER AND/OR OBSTRUCTIONS TO VISIBILITY.

NVZ001-003-004-260600-
WESTERN NEVADA

CITY           SKY/WX    TMP DP  RH WIND       PRES   REMARKS
RENO           PTCLDY    40  26  57 S3        30.46R
CARSON CITY    FAIR      41  27  56 CALM      30.47S
MINDEN         FAIR      36  19  51 NW3       30.49
SLIDE MTN        N/A     41  23  48 N12         N/A
PYRAMID LAKE     N/A     46 N/A N/A W5          N/A
FALLON         PTCLDY    35  18  49 MISG      30.45R
LOVELOCK       CLEAR     36  20  52 SE3       30.44S
HAWTHORNE      CLEAR     37  19  48 CALM      30.46R
$$

NVZ002-CAZ072-073-260600-
NORTHERN AND CENTRAL SIERRA

CITY           SKY/WX    TMP DP  RH WIND       PRES   REMARKS
S. LAKE TAHOE  CLEAR     36  26  67 S7        30.53R
TRUCKEE        CLEAR     32  28  86 CALM      30.53R
SQUAW VLY 8000 NOT AVBL
SUSANVILLE     CLEAR     36  32  87 W6        30.45S
BLUE CANYON    CLEAR     53  34  48 E3        30.49S
MAMMOTH LAKES  FAIR      39  18  41 N5        30.56S
BRIDGEPORT     FAIR      35  22  58 CALM      30.54R
$$

NVZ030-031-036-260600-
NORTHERN NEVADA

CITY           SKY/WX    TMP DP  RH WIND       PRES   REMARKS
ELKO           CLEAR     34  28  79 S5        30.41F
WINNEMUCCA     CLEAR     38  28  67 CALM      30.43S
WENDOVER       PTCLDY    54  30  40 CALM      30.32S
$$

NVZ035-037-260600-
CENTRAL NEVADA

CITY           SKY/WX    TMP DP  RH WIND       PRES   REMARKS
ELY            CLEAR     31  32 100 S12       30.46R
EUREKA           N/A     31  24  75 VRB3      30.47R
$$

NVZ013-014-260600-
SOUTH CENTRAL NEVADA

CITY           SKY/WX    TMP DP  RH WIND       PRES   REMARKS
TONOPAH        CLEAR     44  18  35 N12       30.47R
$$

NVZ017-020-022-260600-
SOUTHERN NEVADA

CITY           SKY/WX    TMP DP  RH WIND       PRES   REMARKS
LAS VEGAS      CLEAR     50  16  25 S6        30.35R
N. LAS VEGAS   CLEAR     48  18  30 N3        30.38R
NELLIS AFB     CLEAR     47  11  23 NE7       30.39R
HENDERSON      CLEAR     45  14  28 S8        30.40R
MERCURY        CLEAR     40   5  23 CALM      30.40R
$$



USA.gov is the U.S. government's official web portal to all federal, state and local government web resources and services.